Location: Sternwarte Stuttgart
(48.7670°N, 9.1830°E)
Time: 02:10:16
(UTC+01:00)

Daily predictions for brighter satellites

Satellite Brightness Start Highest point End
(mag) Time Altitude Azimuth Time Altitude Azimuth Time Altitude Azimuth
ADEOS II 3.9 04:37:14 10° NNE 04:39:02 22° NNE 04:39:02 22° NNE
ADEOS Rocket 4.4 04:37:47 10° N 04:42:26 36° NNW 04:42:26 36° NNW
SeaSat 1 3.5 04:42:33 10° NE 04:47:13 42° ESE 04:47:13 42° ESE
NOSS 3-1 (A) 3.8 04:55:59 74° WSW 04:56:18 75° SW 05:04:33 10° SSE
Cosmos 923 Rocket 4.4 04:59:23 60° ESE 04:59:23 60° ESE 05:03:54 10° SSE
Cosmos 2297 Rocket 3.5 05:02:21 28° N 05:02:21 28° N 05:05:14 10° NNE
ATLAS 2AS CENTAUR R/B 3.5 05:00:47 31° NNW 05:04:43 57° NE 05:12:21 10° ESE
Cosmos 1680 Rocket 3.9 05:04:20 54° NNE 05:05:05 60° ENE 05:10:21 10° SE
Cosmos 968 Rocket 4.2 05:11:11 45° N 05:11:11 45° N 05:14:51 10° NNE
Cosmos 2227 Rocket 3.7 05:16:09 23° N 05:16:09 23° N 05:18:46 10° NNE
Cosmos 1805 Rocket 4.1 05:19:33 46° NNE 05:20:31 57° ENE 05:24:49 10° SSE
Cosmos 2233 Rocket 3.9 05:20:13 63° WSW 05:21:02 69° WNW 05:27:22 10° N
Cosmos 1626 3.3 05:21:46 42° E 05:21:46 42° E 05:25:06 10° SSE
COSMO-SKYMED 1 2.8 05:19:26 10° SSE 05:23:22 68° ESE 05:23:22 68° ESE
USA 234 3.7 05:20:14 10° E 05:26:32 53° NNE 05:29:00 35° NW
Meteor 1-16 Rocket 3.9 05:29:12 50° SSW 05:30:36 79° W 05:35:57 10° N
Cosmos 1943 3.1 05:29:18 43° NNW 05:31:17 88° ENE 05:36:59 10° SSE
Sich 1 3.8 05:29:24 14° N 05:33:02 50° ENE 05:37:14 10° SSE
Cosmos 1356 Rocket 3.4 05:33:41 78° E 05:33:41 78° E 05:37:50 10° SSE
NOSS 3-1 (C) 4.4 05:33:43 40° WSW 05:33:53 40° WSW 05:41:26 10° S
Cosmos 2112 Rocket 3.9 05:39:39 38° NNW 05:41:45 83° WSW 05:47:06 10° SSE
Meteor 1-28 Rocket 3.3 05:38:11 10° SSE 05:41:55 72° ENE 05:42:19 64° NNE
Nadezhda 4 Rocket 4.5 05:36:38 10° N 05:42:55 61° ENE 05:49:07 10° SSE
Cosmos 1633 Rocket 3.6 05:39:22 10° N 05:43:40 57° ENE 05:47:56 10° SSE
Meteor 1-11 4.4 05:45:16 45° WNW 05:46:19 50° W 05:51:53 10° SSW
Cosmos 1184 Rocket 4.0 05:50:45 34° S 05:50:45 34° S 05:52:45 10° S
Cosmos 2263 Rocket 3.2 05:46:29 10° S 05:51:54 47° ESE 05:57:21 10° NE
Cosmos 2034 Rocket 4.1 05:46:50 10° S 05:53:02 76° E 05:59:20 10° NNE
Cosmos 292 Rocket 4.1 05:54:17 45° WSW 05:54:17 45° WSW 05:58:30 10° S
NOAA 6 3.9 05:49:38 10° N 05:54:50 72° WNW 06:00:00 10° SSW
Cosmos 1703 3.6 05:55:38 49° SW 05:55:38 49° SW 05:58:45 10° S
CZ-4 R/B 3.6 05:56:46 10° NE 06:00:18 27° E 06:03:52 10° SSE
Cosmos 1513 Rocket 4.5 05:55:20 10° S 06:01:40 85° W 06:08:08 10° N
Cosmos 1777 Rocket 4.1 06:01:08 35° WSW 06:02:57 51° WNW 06:08:03 10° NNE
CSL-04 Rocket 4.2 05:58:56 10° NNE 06:04:12 60° ESE 06:09:24 10° S
Cosmos 2221 2.5 06:00:34 10° SSW 06:04:48 55° WNW 06:09:03 10° N
COSMOS 2406 4.3 05:59:59 10° NNW 06:05:28 42° NE 06:10:57 10° ESE
Cosmos 1092 Rocket 4.4 05:59:14 10° N 06:05:30 65° ENE 06:11:40 10° SSE
APEX 4.3 06:02:34 10° S 06:05:49 37° ESE 06:08:35 10° NE
SKYMED 2 4.0 06:07:56 10° SSW 06:11:57 37° W 06:12:00 37° W
Cosmos 389 Rocket 2.6 06:12:59 10° S 06:16:40 84° ESE 06:20:22 10° NNE
Okean-O 4.2 06:15:31 10° N 06:17:21 19° NNW 06:17:21 19° NNW
Cosmos 1666 Rocket 3.7 06:15:59 11° NNW 06:20:05 52° W 06:24:25 10° S
Cosmos 1464 Rocket 4.0 06:13:56 10° SSW 06:20:06 55° WNW 06:26:14 10° N
ADEOS II 3.8 06:18:10 10° NNW 06:20:00 16° NW 06:20:00 16° NW
Cosmos 1726 4.2 06:19:58 10° SSE 06:23:12 30° E 06:26:30 10° NNE
ATLAS CENTAUR R/B 3.6 06:22:04 20° NW 06:24:43 42° NNE 06:34:29 10° E
Tiangong 2 2.9 06:23:18 18° SSW 06:24:43 25° S 06:27:22 10° ESE
SeaSat 1 3.0 06:20:14 10° NNE 06:24:44 36° NW 06:27:02 23° W
Cosmos 1933 Rocket 3.6 06:27:11 10° N 06:31:39 83° E 06:36:05 10° S
Ariane Rocket 2.9 06:27:22 10° N 06:32:28 69° WNW 06:37:31 10° SSW
Cosmos 192 4.3 06:28:40 12° NNW 06:33:18 64° WSW 06:38:12 10° S
Alouette 2 Rocket 3.9 06:32:22 10° N 06:35:54 56° ENE 06:39:55 10° SSE
Cosmos 1908 3.3 06:38:31 10° SSW 06:42:15 52° WNW 06:46:02 10° N
NOSS 3-4 (A) 4.5 06:38:34 10° NW 06:45:12 49° NE 06:52:14 10° ESE
Cosmos 2297 Rocket 4.0 06:44:11 12° NW 06:45:23 13° NNW 06:48:02 10° N
Meteor 2-3 Rocket 4.5 06:46:20 10° N 06:52:06 58° ENE 06:57:48 10° SSE
Cosmos 1898 Rocket 3.5 06:46:50 10° SSW 06:52:07 81° WNW 06:57:29 10° NNE
IRS-1A Rocket 4.4 06:46:13 10° NNE 06:52:09 85° WNW 06:57:57 10° SSW
Cosmos 1300 3.2 06:48:25 10° S 06:52:12 65° E 06:56:01 10° NNE
PAYLOAD A 3.8 06:47:51 10° N 06:52:50 68° WNW 06:57:35 10° SSW
Cosmos 1470 Rocket 3.6 06:48:48 10° NNW 06:53:03 55° W 06:57:18 10° S
ATLAS 2AS CENTAUR R/B 3.3 06:48:14 11° NW 06:55:47 50° WSW 07:02:59 10° S
Cosmos 1626 3.7 06:56:31 16° W 06:56:33 16° W 06:58:50 10° WSW
TELKOM 3 2.8 06:55:46 21° W 06:57:10 66° N 06:59:17 10° ENE
COSMO-SKYMED 1 4.3 06:58:21 10° WSW 07:00:27 13° W 07:00:36 13° W
IDEFIX/ARIANE 42P 2.6 06:55:24 10° NNE 07:00:43 83° WNW 07:06:00 10° SSW
Cosmos 1655 Rocket 4.1 06:57:04 10° N 07:03:23 86° E 07:09:37 10° S
Cosmos 1627 Rocket 4.4 06:58:44 10° NNW 07:04:52 74° W 07:11:01 10° S
In-Cosmos 22 Rocket 4.2 07:00:56 10° NNW 07:06:27 84° W 07:12:06 10° S
Cosmos 2150 Rocket 4.0 07:03:15 10° SSW 07:08:39 72° WNW 07:14:00 10° NNE
CORIOLIS 4.3 07:03:32 10° NNE 07:08:59 83° ESE 07:14:26 10° SSW
USA 234 3.3 07:02:50 10° SE 07:09:22 79° SW 07:15:57 10° WNW
Meteor 1-29 2.9 07:06:26 10° S 07:09:56 78° WSW 07:13:28 10° NNW
Sich 1 4.4 07:07:25 10° NW 07:10:20 18° W 07:13:13 10° SW
Cosmos 1634 Rocket 4.0 07:09:07 10° SSW 07:15:22 69° W 07:21:38 10° N
Cosmos 2082 Rocket 3.9 07:12:43 10° NNW 07:17:37 28° NE 07:22:31 10° ESE
Cosmos 1937 Rocket 3.4 07:12:53 10° SSW 07:18:00 68° WNW 07:23:09 10° NNE
CZ-2C R/B 2.4 07:17:36 10° N 07:22:03 51° WNW 07:26:28 10° SW
Cosmos 1048 Rocket 4.4 07:16:46 10° NNW 07:22:10 71° ENE 07:27:28 10° SSE
Meteor 2-2 Rocket 4.4 07:18:14 10° SSW 07:23:54 54° WNW 07:29:29 10° N
Meteor 2-10 4.2 07:21:04 10° S 07:26:11 77° E 07:31:14 10° NNE
Cosmos 1151 Rocket 3.1 07:23:01 10° SSW 07:27:11 51° WNW 07:31:22 10° N
Cosmos 1328 Rocket 4.4 07:23:27 10° SW 07:27:16 29° WNW 07:31:08 10° N
Meteor 1-27 4.5 07:22:13 10° S 07:27:50 81° E 07:33:34 10° NNE
Helios 1B rocket 2.9 07:24:20 10° S 07:28:12 40° W 07:32:06 10° NNW
Cosmos 2228 Rocket 4.0 07:24:48 10° SW 07:28:36 27° WNW 07:32:23 10° N
COSMOS 2441 4.3 07:26:01 10° N 07:30:49 73° WNW 07:35:35 10° SSW
Cosmos 2026 Rocket 4.1 07:25:37 10° NNW 07:31:28 52° W 07:37:19 10° SSW
